Location: Montreal
(45.5087°N, 73.5540°W)
Time: 10:48:24
(UTC-04:00)

ACS3 Solar Sail - Visible Passes

Search period start: 10 May 2026 00:00
Search period end: 20 May 2026 00:00
Orbit: 890 x 951 km, 97.2° (Epoch: 8 May)

Date Brightness Start Highest point End Pass type
(mag) Time Alt. Az. Time Alt. Az. Time Alt. Az.
10 May 3.9 00:01:24 10° ENE 00:02:26 10° E 00:03:28 10° E visible
10 May 1.8 01:39:49 10° NNE 01:45:49 70° E 01:46:58 57° SSE visible
10 May 3.3 03:23:11 10° NNW 03:27:35 22° WNW 03:30:27 16° W visible
11 May 3.8 00:08:39 10° ENE 00:11:17 13° E 00:12:19 12° E visible
11 May 1.7 01:48:28 10° NNE 01:54:31 82° ESE 01:55:48 58° S visible
11 May 3.5 03:32:09 10° NNW 03:36:07 19° WNW 03:39:18 13° W visible
12 May 3.6 00:16:36 10° NE 00:20:07 16° E 00:21:10 15° E visible
12 May 1.6 01:57:09 10° N 02:03:11 85° WNW 02:04:39 55° SSW visible
12 May 3.6 03:41:11 10° NNW 03:44:39 16° WNW 03:48:08 10° W visible
13 May 3.4 00:24:48 10° NE 00:28:56 19° E 00:30:01 18° E visible
13 May 1.7 02:05:51 10° N 02:11:51 73° WNW 02:13:30 49° SW visible
13 May 3.7 03:50:21 10° NNW 03:53:10 14° NW 03:56:00 10° W visible
14 May 3.2 00:33:08 10° NE 00:37:45 22° E 00:38:51 21° ESE visible
14 May 1.9 02:14:35 10° N 02:20:31 62° WNW 02:22:21 43° SW visible
14 May 3.8 03:59:45 10° NW 04:01:40 12° NW 04:03:35 10° WNW visible
15 May 3.0 00:41:32 10° NE 00:46:32 27° E 00:47:42 25° ESE visible
15 May 2.1 02:23:20 10° N 02:29:09 53° WNW 02:31:12 37° WSW visible
16 May 2.8 00:50:01 10° NNE 00:55:19 31° E 00:56:33 29° ESE visible
16 May 2.3 02:32:06 10° N 02:37:47 45° WNW 02:40:02 32° WSW visible
17 May 2.6 00:58:32 10° NNE 01:04:05 37° E 01:05:24 33° ESE visible
17 May 2.5 02:40:54 10° N 02:46:24 38° WNW 02:48:53 27° WSW visible
18 May 2.3 01:07:06 10° NNE 01:12:51 44° E 01:14:15 38° SE visible
18 May 2.8 02:49:43 10° N 02:55:00 33° WNW 02:57:44 23° WSW visible
19 May 2.1 01:15:42 10° NNE 01:21:36 52° E 01:23:05 42° SE visible
19 May 3.0 02:58:35 10° N 03:03:36 28° WNW 03:06:35 19° WSW visible
